Location: Newark
(46.7458°N, 5.3164°E)
Time: 13:34:32
(UTC+00:00)

ISS - Visible Passes

Search period start: 12 November 2019 00:00
Search period end: 22 November 2019 00:00
Orbit: 412 x 421 km, 51.6° (Epoch: 12 November)

Date Brightness Start Highest point End Pass type
(mag) Time Alt. Az. Time Alt. Az. Time Alt. Az.
12 Nov -1.2 04:01:35 19° SE 04:01:35 19° SE 04:02:38 10° SE visible
12 Nov -1.4 05:34:31 10° WSW 05:35:28 11° SW 05:36:33 10° SSW visible
13 Nov -1.5 04:48:32 15° SSW 04:48:32 15° SSW 04:49:41 10° S visible
21 Nov -1.4 18:14:40 10° SSW 18:15:42 17° SSW 18:15:42 17° SSW visible
